SCP
-0 -0 -0 -0 -0 0 -0 -0 -0 -0 -0 -0 -0 -0 -0 -0 -0 0 -0 -0 -0 0 -0 0 0 0 0 0 0 0 0 0 0 0 0 0 0 0 0 0 0 0 0 0 0 0 0 0 -0
-0 0 -0 -0 -0 0 -0 -0 -0 -0 -0 -0 -0 -0 -0 0 0 -0 -0 -0 0 0 0 0 0 0 0 0 0 0 0 0 0 0 0 0 0 0 0 0 0 0 0 0 0 0 0 0 0
-0 -0 -0 0 0 0 0 0 -0 -0 -0 -0 -0 0 0 0 0 -0 -0 -0 0 0 0 0 -0 -0 -0 0 0 0 0 0 0 0 0 0 0 0 0 0 0 0 0 0 0 0 0 0 0
0 -0 -0 -0 0 0 -0 -0 -0 0 -0 0 0 -0 0 0 -0 -0 0 -0 -0 -0 0 0 -0 -0 -0 0 0 0 0 0 0 0 0 0 0 0 0 0 0 0 0 0 0 0 -0 -0 -0
-0 -0 0 0 0 -0 -0 -0 0 0 0 -0 0 0 0 -0 -0 -0 0 0 0 0 -0 -0 -0 -0 -0 -0 0 0 0 0 0 0 0 0 0 0 0 0 0 0 0 -0 -0 -0 -0 -0 -0
-0 0 0 0 0 -0 -0 -0 0 0 -0 0 0 0 -0 -0 -0 -0 -0 -0 -0 0 -0 0 0 -0 0 0 0 0 0 0 0 0 0 0 0 0 0 0 0 0 0 0 0 -0 -0 -0 -0
-0 0 0 0 -0 0 0 -0 -0 0 -0 -0 0 -0 -0 -0 -0 -0 0 0 -0 -0 0 0 -0 -0 -0 -0 -0 0 0 0 0 0 0 0 0 0 0 0 0 0 0 0 0 0 0 0 0
-0 0 -0 -0 -0 0 0 0 -0 0 0 -0 -0 -0 -0 -0 -0 -0 0 0 -0 -0 -0 -0 0 -0 -0 -0 -0 -0 0 0 0 0 0 0 0 0 0 0 0 0 0 0 -0 0 0 0 0
0 0 -0 -0 -0 0 0 0 0 0 0 -0 -0 -0 -0 -0 -0 -0 0 0 0 0 0 0 0 0 0 0 0 0 -0 0 0 0 0 0 0 0 0 0 0 0 0 0 -0 0 0 0 0
0 0 -0 -0 -0 0 0 0 0 0 0 0 -0 -0 0 0 0 0 0 0 0 0 0 0 0 0 0 0 0 0 0 0 0 0 0 0 0 0 0 0 0 0 0 0 0 0 0 0 0
0 0 0 -0 0 0 0 0 0 0 0 0 0 0 0 0 0 0 0 0 0 0 0 0 0 0 0 0 0 0 0 0 0 0 0 0 0 0 0 0 0 0 0 0 0 0 0 0 0
-0 0 0 0 0 0 0 0 0 0 0 -0 0 0 0 0 0 -0 0 0 0 0 0 0 0 0 0 0 0 0 0 0 0 0 0 1 0 0 0 0 0 0 0 0 1 0 0 0 0
0 -0 0 0 0 0 0 0 0 0 0 0 0 0 0 0 0 0 0 0 -0 -0 -0 -0 0 0 0 0 0 -0 0 0 0 0 0 0 0 0 0 0 0 0 0 0 0 0 0 0 0
0 0 0 0 0 0 0 0 0 0 0 0 0 0 0 0 0 0 0 -0 -0 -0 -0 -0 -0 -0 -0 -0 0 0 0 -0 -0 -0 0 0 0 0 0 0 0 0 0 0 0 0 0 0 0
0 0 0 0 0 0 0 0 0 0 0 0 0 0 1 0 0 0 0 -0 -0 -0 -0 -0 -0 0 0 0 0 0 0 0 0 0 0 0 0 0 0 0 0 0 0 0 0 0 0 0 0
0 0 0 0 0 0 0 0 0 0 0 0 1 1 2 1 1 0 -0 -0 -0 -0 -0 -0 0 -0 -0 -0 -0 0 0 0 0 0 0 0 0 0 0 0 0 0 0 0 0 0 0 0 0
0 0 0 0 0 0 0 0 0 0 0 0 1 2 1 1 0 -0 -0 -0 -0 -0 -0 -0 -0 -0 -0 -0 0 0 0 0 0 0 0 0 0 0 0 0 0 0 0 0 0 0 0 0 0
0 0 -0 0 0 0 0 0 0 0 0 0 0 0 1 0 -0 -0 -0 -0 -0 -0 -0 0 0 0 0 0 0 0 0 0 0 0 0 0 0 0 0 0 0 0 0 0 0 0 0 0 0
0 0 0 0 0 0 0 0 0 0 0 0 0 0 0 0 -0 -0 -0 -0 -0 -0 0 0 0 0 0 0 0 0 0 0 0 0 0 0 0 0 0 0 0 0 0 0 0 0 0 0 0
0 0 0 0 0 0 0 0 0 0 0 0 0 0 0 0 -0 -0 -0 -0 -0 0 0 0 0 0 0 0 0 0 0 0 0 0 0 0 0 0 0 0 0 0 0 0 0 0 0 0 0
0 0 0 0 0 0 0 0 0 0 0 0 0 0 0 0 0 -0 -0 -0 0 0 0 0 0 0 0 0 0 0 0 0 0 0 0 0 0 0 0 0 0 0 0 0 0 0 0 0 0
0 0 0 0 0 0 0 0 0 0 0 0 0 0 0 0 -0 0 0 0 0 0 0 0 0 0 0 0 0 0 0 0 0 0 0 0 0 0 0 0 0 0 0 0 0 0 0 0 -0
0 0 0 0 0 0 0 0 0 0 0 0 0 0 0 0 0 0 0 0 0 0 0 0 0 0 0 0 0 0 0 0 0 0 0 0 0 0 0 0 0 0 0 0 0 0 0 0 -0
0 0 0 0 0 0 0 0 0 0 0 0 0 0 0 0 0 0 0 0 0 0 0 0 0 0 0 0 0 0 0 0 0 0 0 0 0 0 0 0 0 0 0 0 0 0 0 0 0
0 0 0 0 0 0 0 0 0 0 0 0 0 0 0 0 0 0 0 0 0 0 0 0 0 0 0 0 0 0 0 0 0 0 0 0 0 0 0 0 0 0 0 0 0 0 0 0 0
0 0 0 0 0 0 0 0 0 0 0 0 0 0 0 0 0 0 0 0 0 0 0 0 0 0 0 0 0 0 0 0 0 0 0 0 0 0 0 0 0 0 0 0 0 0 0 0 0
0 0 0 0 0 0 0 0 0 0 0 0 0 0 0 0 0 0 0 0 0 0 0 0 0 0 0 0 0 0 0 0 0 0 0 0 0 0 0 0 0 0 0 0 0 0 0 0 0
0 0 0 0 0 0 0 0 0 0 0 0 0 0 0 0 0 0 0 0 0 0 0 0 0 0 0 0 0 0 0 0 0 0 0 0 0 0 0 0 0 0 0 0 0 0 0 0 0
0 0 0 0 0 0 0 0 0 0 0 0 0 0 0 0 0 0 0 0 0 0 0 0 0 0 0 0 0 0 0 0 0 0 0 0 0 0 0 0 0 0 0 0 0 0 0 0 0
0 0 0 0 0 0 0 0 0 0 0 0 0 0 0 0 0 0 0 0 0 0 0 0 0 0 0 0 0 0 0 0 0 0 0 0 0 0 0 0 0 0 0 0 0 0 0 0 0
Wind_Speed_500mb
15 15 8 6 9 11 3 4 4 6 4 5 8 11 10 17 9 7 17 7 13 12 15 19 21 22 21 22 19 16 16 15 15 15 15 15 14 15 16 17 18 18 18 17 16 15 16 17 16
26 14 7 5 11 9 8 2 11 13 3 13 6 4 12 11 21 14 12 15 18 11 12 16 23 24 21 19 18 17 14 12 11 10 10 9 9 10 11 11 12 13 13 13 11 10 11 10 10
24 10 3 9 7 5 8 8 12 6 10 8 6 5 6 4 11 11 17 23 20 15 13 14 20 25 24 21 18 16 13 11 9 7 7 6 4 4 5 4 5 5 6 7 6 6 6 4 3
19 5 11 10 4 2 4 11 13 22 14 7 8 9 9 12 13 19 24 24 18 16 13 12 18 23 24 22 19 17 15 12 9 7 6 6 5 4 3 2 4 6 7 6 4 2 2 2 3
12 7 9 7 8 6 4 18 26 11 17 10 8 5 7 25 28 21 26 19 8 11 13 9 10 14 18 17 18 18 15 12 10 9 10 12 12 12 10 10 11 11 12 13 13 12 11 9 8
8 6 10 7 9 5 6 25 21 8 13 15 26 15 4 28 27 23 20 17 12 10 21 18 15 12 10 10 13 15 16 17 16 15 15 15 16 16 14 13 13 14 15 15 14 14 14 13 12
11 8 3 2 3 5 11 31 10 16 13 5 20 9 17 31 28 25 18 17 17 17 11 10 8 11 11 14 15 15 17 18 20 21 21 21 20 17 15 15 15 17 17 15 14 14 13 14 14
5 10 4 2 4 8 19 32 12 24 6 20 13 15 13 38 36 26 20 22 26 23 17 14 8 6 5 4 7 9 12 16 19 20 20 19 19 18 18 17 18 18 16 15 15 15 15 14 15
3 9 2 4 7 5 29 7 16 19 22 9 10 30 39 47 39 29 18 19 17 14 11 15 9 6 5 2 4 8 7 9 12 16 19 21 20 20 20 21 19 16 19 22 21 21 21 20 21
7 7 9 13 10 11 27 21 26 11 22 14 30 38 49 50 42 32 15 14 12 7 3 3 5 11 6 5 7 7 9 12 15 15 17 19 21 23 23 19 15 19 27 31 30 27 27 25 22
3 11 10 5 13 36 23 17 11 42 1 49 56 57 55 50 40 29 17 11 9 5 4 8 11 8 7 10 12 13 15 15 16 17 18 20 21 21 20 20 27 27 29 28 29 29 30 28 21
1 8 6 18 20 28 17 29 19 10 21 53 51 53 51 40 35 23 18 14 7 3 2 9 7 7 15 20 21 26 25 26 28 29 27 25 25 26 28 31 30 27 31 32 29 32 34 33 31
2 5 5 20 20 26 33 14 20 16 30 48 51 48 45 36 35 26 16 12 13 8 6 4 6 11 18 29 34 37 38 34 35 32 31 27 26 26 30 27 29 30 34 36 34 35 38 37 37
9 14 13 16 19 17 24 18 8 18 40 47 48 43 41 42 41 29 20 15 10 5 4 7 14 20 27 31 29 32 36 40 44 45 42 39 32 31 26 27 26 29 33 36 37 36 35 36 39
8 10 10 14 16 8 43 7 6 41 46 51 53 51 48 41 34 29 28 24 18 15 14 15 17 25 22 23 31 30 35 39 41 43 40 39 39 37 35 29 28 27 27 27 24 25 27 28 31
11 11 6 9 12 28 4 8 10 33 54 55 53 52 46 40 35 35 36 27 22 20 20 16 14 13 14 11 20 18 25 29 36 38 42 45 48 47 39 37 36 30 27 26 27 21 17 22 30
14 2 4 5 7 9 5 4 24 36 46 45 48 52 48 43 39 36 30 15 14 12 9 7 8 7 6 4 7 11 13 24 27 31 35 43 44 41 40 44 42 43 38 30 25 20 18 11 19
4 5 6 5 6 1 7 10 34 45 42 37 45 51 50 46 40 32 18 14 14 11 12 11 11 5 4 11 12 18 14 22 32 31 34 42 35 29 32 36 41 43 43 41 32 18 3 7 17
10 8 7 5 8 5 7 10 36 43 36 34 37 49 53 46 35 27 21 21 16 9 17 18 16 15 15 15 20 25 25 26 36 23 38 48 48 46 44 42 43 47 49 47 44 29 19 7 11
9 6 5 9 6 5 11 3 10 23 15 38 44 48 50 41 34 25 20 17 12 14 18 22 23 22 25 28 28 31 39 42 36 40 42 43 39 52 56 53 34 31 35 46 49 56 67 63 38
2 7 3 10 9 5 8 7 6 5 16 30 44 50 44 38 28 21 23 22 23 23 23 26 28 30 29 30 36 41 43 44 47 48 47 49 52 49 56 59 55 50 46 46 49 47 48 69 97
3 5 5 9 4 4 6 7 0 4 7 28 45 46 41 38 35 32 33 34 30 24 30 37 38 40 37 39 43 46 50 56 55 57 57 58 57 55 57 54 55 58 59 51 35 35 41 31 42
8 7 6 5 4 7 12 8 8 7 6 9 23 37 37 36 34 35 39 32 21 21 24 27 38 44 47 47 50 56 62 67 70 69 73 72 68 68 67 66 64 56 57 53 42 34 31 41 30
5 2 12 9 6 6 4 7 8 4 10 9 23 35 33 28 19 14 8 10 19 22 26 29 29 31 35 41 46 50 53 54 60 65 72 75 76 70 70 74 67 65 59 55 50 42 34 30 37
16 14 9 11 11 7 7 4 12 8 8 12 33 33 27 24 16 8 8 11 14 15 18 21 27 31 36 40 47 56 64 70 74 77 82 84 82 77 76 76 75 65 63 62 57 52 46 36 29
7 9 9 5 3 10 8 4 9 5 2 7 22 26 20 11 4 6 7 11 11 18 25 26 29 36 44 55 64 69 73 74 74 71 75 76 71 69 63 57 55 56 51 54 57 56 53 44 41
3 1 6 12 4 4 6 10 12 7 5 9 16 16 6 1 3 6 10 17 24 24 26 33 44 53 61 68 76 77 72 66 71 69 64 66 69 72 76 67 55 51 44 43 44 48 49 46 46
4 9 6 6 1 6 9 9 10 9 15 7 11 7 2 2 7 14 21 29 30 30 37 48 54 63 71 74 72 70 66 64 60 58 55 60 59 54 57 58 64 55 52 48 47 48 49 51 52
5 3 11 8 8 8 4 11 10 13 14 14 11 3 6 6 10 22 30 29 31 38 44 54 65 70 71 69 66 66 61 54 56 51 49 49 46 47 50 54 50 59 64 53 46 48 48 46 46
1 2 8 10 5 1 5 13 3 5 10 19 10 7 7 10 21 28 26 32 37 44 55 66 67 64 63 62 65 60 55 57 52 49 47 47 49 47 44 41 41 44 44 54 63 61 58 52 47
Wind_Direction_500mb
21 38 69 89 56 65 318 252 92 194 277 244 108 37 77 39 38 140 126 97 127 143 144 156 161 162 155 152 152 151 143 135 132 130 125 119 113 110 105 99 95 94 92 88 87 85 86 88 89
17 24 73 93 78 59 275 139 174 211 236 132 111 84 72 65 77 96 125 133 138 139 133 151 166 170 166 160 159 160 162 155 143 134 131 132 126 112 102 101 103 105 104 102 98 91 82 82 89
3 18 38 87 100 151 207 147 182 112 168 114 63 47 10 73 56 114 112 121 123 126 126 141 166 173 174 174 171 172 174 177 179 174 171 167 158 135 118 106 90 80 84 98 108 110 106 90 74
358 38 54 81 308 317 238 144 159 122 129 166 104 70 55 98 108 109 106 117 124 126 119 131 157 173 181 184 184 184 188 193 205 216 232 240 245 250 263 312 346 356 350 343 351 352 269 234 255
14 50 56 63 301 299 7 141 149 133 145 209 186 91 54 122 125 103 106 104 92 119 96 103 132 167 189 199 208 212 218 227 241 264 279 282 283 286 299 315 328 334 329 325 329 322 318 314 304
53 57 44 11 322 342 62 153 148 110 99 116 117 95 157 140 135 118 112 112 109 148 137 136 146 155 186 220 241 247 250 258 267 276 283 289 291 293 298 304 310 311 308 314 321 318 315 311 305
104 82 183 214 285 98 163 163 172 95 119 78 137 96 169 149 138 144 134 119 119 102 91 88 111 144 181 192 211 230 249 258 265 272 276 279 284 285 286 288 291 294 295 302 303 303 305 302 306
72 90 80 269 202 169 168 165 212 108 65 112 144 159 198 154 152 158 147 132 111 105 93 96 109 130 179 256 253 255 260 268 273 267 272 277 273 271 269 269 275 276 275 275 283 294 300 289 295
105 58 340 217 171 213 157 125 88 108 129 149 155 161 153 151 158 163 149 135 129 125 107 129 97 91 141 131 306 296 287 271 271 284 284 280 273 268 269 271 271 261 273 276 278 283 283 291 290
109 106 235 185 177 182 170 131 130 109 115 100 148 157 157 159 164 167 156 154 169 196 298 126 29 14 35 44 337 329 306 290 290 286 281 277 276 277 276 274 264 272 280 281 284 282 281 282 283
149 183 215 113 151 165 138 101 122 122 77 159 162 161 161 164 168 176 171 175 192 216 291 308 319 348 357 306 288 327 300 304 299 296 295 298 285 278 276 274 282 279 278 283 279 286 286 278 273
258 239 234 135 134 143 127 127 107 150 186 169 158 156 160 167 176 194 197 200 196 159 313 323 341 342 333 329 316 320 317 307 297 294 294 287 288 288 285 284 285 292 285 281 281 283 283 282 269
333 47 161 120 118 123 139 94 129 101 165 174 165 171 167 178 190 180 192 173 117 87 13 336 344 317 320 323 318 310 313 318 323 317 301 285 270 282 291 298 303 302 297 294 294 285 284 278 270
346 80 83 96 73 111 120 123 68 149 159 168 175 174 169 166 167 164 153 126 100 46 16 338 339 337 330 326 326 331 339 341 338 332 319 309 304 299 300 297 303 302 295 293 289 282 276 268 268
63 58 48 135 130 96 113 11 175 155 164 161 164 164 164 166 159 146 128 119 86 59 54 43 51 38 25 21 17 5 14 2 346 333 327 319 315 308 304 300 287 281 281 279 273 270 266 262 263
52 54 80 315 137 173 23 233 178 165 161 157 162 161 159 156 154 139 132 111 89 85 81 72 47 63 39 35 23 9 24 358 346 330 317 313 311 312 305 294 289 277 260 251 249 246 248 261 262
9 90 83 31 43 163 200 186 179 173 168 159 164 164 162 160 158 144 136 106 98 124 134 98 102 91 42 301 348 326 343 338 316 308 311 314 309 301 302 297 286 280 269 248 235 227 236 274 295
230 106 41 88 333 271 173 196 171 182 175 167 173 172 168 168 158 144 139 145 160 165 188 189 198 190 255 275 265 295 277 321 302 301 314 319 313 317 312 299 288 281 263 238 225 222 284 338 342
101 83 26 308 16 323 227 181 177 176 181 184 184 179 179 181 172 173 175 181 189 211 220 223 228 234 246 265 269 273 271 296 291 305 308 303 308 313 318 312 286 281 278 278 265 248 318 295 333
79 100 334 294 313 47 4 75 154 168 186 185 189 192 190 191 196 198 202 212 224 241 248 241 244 249 251 258 266 268 274 282 276 282 287 284 296 304 310 310 291 289 295 296 279 274 255 286 307
82 133 254 227 340 53 11 48 90 145 152 178 197 200 200 200 206 212 222 236 241 256 271 268 267 262 263 264 276 275 276 280 279 282 280 285 289 291 294 303 292 300 304 301 292 279 283 258 264
16 219 247 273 69 228 36 267 72 321 161 175 194 206 211 215 224 233 240 248 257 281 281 277 269 262 258 268 272 276 281 283 280 280 278 276 273 275 281 284 284 287 294 300 288 283 268 278 273
221 14 30 358 100 85 4 82 257 149 127 175 198 208 216 225 238 249 259 261 254 267 283 271 264 261 260 273 282 279 278 281 283 281 281 277 274 272 275 276 274 274 281 287 278 273 278 262 260
330 41 46 56 75 49 334 125 295 226 189 172 196 209 214 219 209 202 190 218 268 275 277 273 270 278 285 287 284 285 288 290 292 292 293 291 288 283 278 275 277 273 271 273 273 271 266 262 256
48 45 345 1 11 224 333 77 242 285 228 217 197 195 194 184 206 245 293 295 301 288 289 292 301 301 296 295 299 301 302 302 302 302 300 298 295 291 285 276 274 271 267 261 260 260 259 255 254
45 127 148 270 288 278 316 300 272 232 69 147 174 175 170 198 275 298 340 347 336 322 316 312 302 300 309 309 308 308 306 306 303 301 298 295 291 289 289 289 279 272 264 256 254 257 257 251 252
151 73 166 105 7 25 278 294 328 152 122 132 147 162 152 64 80 346 331 335 332 324 316 312 310 310 308 309 310 309 310 308 306 304 303 300 292 287 285 283 277 270 260 252 251 248 247 247 247
142 148 47 14 249 307 304 292 238 232 233 155 167 150 59 323 300 336 335 330 323 312 308 307 306 310 312 312 311 311 312 312 311 308 310 310 301 298 295 285 269 263 258 252 252 250 254 261 264
31 1 54 111 122 174 279 267 214 258 254 192 184 218 295 276 301 325 327 320 311 304 305 309 314 313 314 314 316 317 317 317 316 313 314 314 305 301 299 296 287 271 261 254 247 250 260 262 264
150 139 118 113 246 114 153 273 280 282 158 159 180 262 283 291 319 320 317 317 313 308 312 315 316 317 317 321 323 321 320 316 315 318 316 309 302 299 294 295 286 282 270 260 254 251 257 254 253
Wind_Speed_850mb
15 15 8 6 9 11 3 4 4 6 4 5 8 11 10 17 9 7 17 7 13 12 15 19 21 22 21 22 19 16 16 15 15 15 15 15 14 15 16 17 18 18 18 17 16 15 16 17 16
26 14 7 5 11 9 8 2 11 13 3 13 6 4 12 11 21 14 12 15 18 11 12 16 23 24 21 19 18 17 14 12 11 10 10 9 9 10 11 11 12 13 13 13 11 10 11 10 10
24 10 3 9 7 5 8 8 12 6 10 8 6 5 6 4 11 11 17 23 20 15 13 14 20 25 24 21 18 16 13 11 9 7 7 6 4 4 5 4 5 5 6 7 6 6 6 4 3
19 5 11 10 4 2 4 11 13 22 14 7 8 9 9 12 13 19 24 24 18 16 13 12 18 23 24 22 19 17 15 12 9 7 6 6 5 4 3 2 4 6 7 6 4 2 2 2 3
12 7 9 7 8 6 4 18 26 11 17 10 8 5 7 25 28 21 26 19 8 11 13 9 10 14 18 17 18 18 15 12 10 9 10 12 12 12 10 10 11 11 12 13 13 12 11 9 8
8 6 10 7 9 5 6 25 21 8 13 15 26 15 4 28 27 23 20 17 12 10 21 18 15 12 10 10 13 15 16 17 16 15 15 15 16 16 14 13 13 14 15 15 14 14 14 13 12
11 8 3 2 3 5 11 31 10 16 13 5 20 9 17 31 28 25 18 17 17 17 11 10 8 11 11 14 15 15 17 18 20 21 21 21 20 17 15 15 15 17 17 15 14 14 13 14 14
5 10 4 2 4 8 19 32 12 24 6 20 13 15 13 38 36 26 20 22 26 23 17 14 8 6 5 4 7 9 12 16 19 20 20 19 19 18 18 17 18 18 16 15 15 15 15 14 15
3 9 2 4 7 5 29 7 16 19 22 9 10 30 39 47 39 29 18 19 17 14 11 15 9 6 5 2 4 8 7 9 12 16 19 21 20 20 20 21 19 16 19 22 21 21 21 20 21
7 7 9 13 10 11 27 21 26 11 22 14 30 38 49 50 42 32 15 14 12 7 3 3 5 11 6 5 7 7 9 12 15 15 17 19 21 23 23 19 15 19 27 31 30 27 27 25 22
3 11 10 5 13 36 23 17 11 42 1 49 56 57 55 50 40 29 17 11 9 5 4 8 11 8 7 10 12 13 15 15 16 17 18 20 21 21 20 20 27 27 29 28 29 29 30 28 21
1 8 6 18 20 28 17 29 19 10 21 53 51 53 51 40 35 23 18 14 7 3 2 9 7 7 15 20 21 26 25 26 28 29 27 25 25 26 28 31 30 27 31 32 29 32 34 33 31
2 5 5 20 20 26 33 14 20 16 30 48 51 48 45 36 35 26 16 12 13 8 6 4 6 11 18 29 34 37 38 34 35 32 31 27 26 26 30 27 29 30 34 36 34 35 38 37 37
9 14 13 16 19 17 24 18 8 18 40 47 48 43 41 42 41 29 20 15 10 5 4 7 14 20 27 31 29 32 36 40 44 45 42 39 32 31 26 27 26 29 33 36 37 36 35 36 39
8 10 10 14 16 8 43 7 6 41 46 51 53 51 48 41 34 29 28 24 18 15 14 15 17 25 22 23 31 30 35 39 41 43 40 39 39 37 35 29 28 27 27 27 24 25 27 28 31
11 11 6 9 12 28 4 8 10 33 54 55 53 52 46 40 35 35 36 27 22 20 20 16 14 13 14 11 20 18 25 29 36 38 42 45 48 47 39 37 36 30 27 26 27 21 17 22 30
14 2 4 5 7 9 5 4 24 36 46 45 48 52 48 43 39 36 30 15 14 12 9 7 8 7 6 4 7 11 13 24 27 31 35 43 44 41 40 44 42 43 38 30 25 20 18 11 19
4 5 6 5 6 1 7 10 34 45 42 37 45 51 50 46 40 32 18 14 14 11 12 11 11 5 4 11 12 18 14 22 32 31 34 42 35 29 32 36 41 43 43 41 32 18 3 7 17
10 8 7 5 8 5 7 10 36 43 36 34 37 49 53 46 35 27 21 21 16 9 17 18 16 15 15 15 20 25 25 26 36 23 38 48 48 46 44 42 43 47 49 47 44 29 19 7 11
9 6 5 9 6 5 11 3 10 23 15 38 44 48 50 41 34 25 20 17 12 14 18 22 23 22 25 28 28 31 39 42 36 40 42 43 39 52 56 53 34 31 35 46 49 56 67 63 38
2 7 3 10 9 5 8 7 6 5 16 30 44 50 44 38 28 21 23 22 23 23 23 26 28 30 29 30 36 41 43 44 47 48 47 49 52 49 56 59 55 50 46 46 49 47 48 69 97
3 5 5 9 4 4 6 7 0 4 7 28 45 46 41 38 35 32 33 34 30 24 30 37 38 40 37 39 43 46 50 56 55 57 57 58 57 55 57 54 55 58 59 51 35 35 41 31 42
8 7 6 5 4 7 12 8 8 7 6 9 23 37 37 36 34 35 39 32 21 21 24 27 38 44 47 47 50 56 62 67 70 69 73 72 68 68 67 66 64 56 57 53 42 34 31 41 30
5 2 12 9 6 6 4 7 8 4 10 9 23 35 33 28 19 14 8 10 19 22 26 29 29 31 35 41 46 50 53 54 60 65 72 75 76 70 70 74 67 65 59 55 50 42 34 30 37
16 14 9 11 11 7 7 4 12 8 8 12 33 33 27 24 16 8 8 11 14 15 18 21 27 31 36 40 47 56 64 70 74 77 82 84 82 77 76 76 75 65 63 62 57 52 46 36 29
7 9 9 5 3 10 8 4 9 5 2 7 22 26 20 11 4 6 7 11 11 18 25 26 29 36 44 55 64 69 73 74 74 71 75 76 71 69 63 57 55 56 51 54 57 56 53 44 41
3 1 6 12 4 4 6 10 12 7 5 9 16 16 6 1 3 6 10 17 24 24 26 33 44 53 61 68 76 77 72 66 71 69 64 66 69 72 76 67 55 51 44 43 44 48 49 46 46
4 9 6 6 1 6 9 9 10 9 15 7 11 7 2 2 7 14 21 29 30 30 37 48 54 63 71 74 72 70 66 64 60 58 55 60 59 54 57 58 64 55 52 48 47 48 49 51 52
5 3 11 8 8 8 4 11 10 13 14 14 11 3 6 6 10 22 30 29 31 38 44 54 65 70 71 69 66 66 61 54 56 51 49 49 46 47 50 54 50 59 64 53 46 48 48 46 46
1 2 8 10 5 1 5 13 3 5 10 19 10 7 7 10 21 28 26 32 37 44 55 66 67 64 63 62 65 60 55 57 52 49 47 47 49 47 44 41 41 44 44 54 63 61 58 52 47
Wind_Direction_850mb
21 38 69 89 56 65 318 252 92 194 277 244 108 37 77 39 38 140 126 97 127 143 144 156 161 162 155 152 152 151 143 135 132 130 125 119 113 110 105 99 95 94 92 88 87 85 86 88 89
17 24 73 93 78 59 275 139 174 211 236 132 111 84 72 65 77 96 125 133 138 139 133 151 166 170 166 160 159 160 162 155 143 134 131 132 126 112 102 101 103 105 104 102 98 91 82 82 89
3 18 38 87 100 151 207 147 182 112 168 114 63 47 10 73 56 114 112 121 123 126 126 141 166 173 174 174 171 172 174 177 179 174 171 167 158 135 118 106 90 80 84 98 108 110 106 90 74
358 38 54 81 308 317 238 144 159 122 129 166 104 70 55 98 108 109 106 117 124 126 119 131 157 173 181 184 184 184 188 193 205 216 232 240 245 250 263 312 346 356 350 343 351 352 269 234 255
14 50 56 63 301 299 7 141 149 133 145 209 186 91 54 122 125 103 106 104 92 119 96 103 132 167 189 199 208 212 218 227 241 264 279 282 283 286 299 315 328 334 329 325 329 322 318 314 304
53 57 44 11 322 342 62 153 148 110 99 116 117 95 157 140 135 118 112 112 109 148 137 136 146 155 186 220 241 247 250 258 267 276 283 289 291 293 298 304 310 311 308 314 321 318 315 311 305
104 82 183 214 285 98 163 163 172 95 119 78 137 96 169 149 138 144 134 119 119 102 91 88 111 144 181 192 211 230 249 258 265 272 276 279 284 285 286 288 291 294 295 302 303 303 305 302 306
72 90 80 269 202 169 168 165 212 108 65 112 144 159 198 154 152 158 147 132 111 105 93 96 109 130 179 256 253 255 260 268 273 267 272 277 273 271 269 269 275 276 275 275 283 294 300 289 295
105 58 340 217 171 213 157 125 88 108 129 149 155 161 153 151 158 163 149 135 129 125 107 129 97 91 141 131 306 296 287 271 271 284 284 280 273 268 269 271 271 261 273 276 278 283 283 291 290
109 106 235 185 177 182 170 131 130 109 115 100 148 157 157 159 164 167 156 154 169 196 298 126 29 14 35 44 337 329 306 290 290 286 281 277 276 277 276 274 264 272 280 281 284 282 281 282 283
149 183 215 113 151 165 138 101 122 122 77 159 162 161 161 164 168 176 171 175 192 216 291 308 319 348 357 306 288 327 300 304 299 296 295 298 285 278 276 274 282 279 278 283 279 286 286 278 273
258 239 234 135 134 143 127 127 107 150 186 169 158 156 160 167 176 194 197 200 196 159 313 323 341 342 333 329 316 320 317 307 297 294 294 287 288 288 285 284 285 292 285 281 281 283 283 282 269
333 47 161 120 118 123 139 94 129 101 165 174 165 171 167 178 190 180 192 173 117 87 13 336 344 317 320 323 318 310 313 318 323 317 301 285 270 282 291 298 303 302 297 294 294 285 284 278 270
346 80 83 96 73 111 120 123 68 149 159 168 175 174 169 166 167 164 153 126 100 46 16 338 339 337 330 326 326 331 339 341 338 332 319 309 304 299 300 297 303 302 295 293 289 282 276 268 268
63 58 48 135 130 96 113 11 175 155 164 161 164 164 164 166 159 146 128 119 86 59 54 43 51 38 25 21 17 5 14 2 346 333 327 319 315 308 304 300 287 281 281 279 273 270 266 262 263
52 54 80 315 137 173 23 233 178 165 161 157 162 161 159 156 154 139 132 111 89 85 81 72 47 63 39 35 23 9 24 358 346 330 317 313 311 312 305 294 289 277 260 251 249 246 248 261 262
9 90 83 31 43 163 200 186 179 173 168 159 164 164 162 160 158 144 136 106 98 124 134 98 102 91 42 301 348 326 343 338 316 308 311 314 309 301 302 297 286 280 269 248 235 227 236 274 295
230 106 41 88 333 271 173 196 171 182 175 167 173 172 168 168 158 144 139 145 160 165 188 189 198 190 255 275 265 295 277 321 302 301 314 319 313 317 312 299 288 281 263 238 225 222 284 338 342
101 83 26 308 16 323 227 181 177 176 181 184 184 179 179 181 172 173 175 181 189 211 220 223 228 234 246 265 269 273 271 296 291 305 308 303 308 313 318 312 286 281 278 278 265 248 318 295 333
79 100 334 294 313 47 4 75 154 168 186 185 189 192 190 191 196 198 202 212 224 241 248 241 244 249 251 258 266 268 274 282 276 282 287 284 296 304 310 310 291 289 295 296 279 274 255 286 307
82 133 254 227 340 53 11 48 90 145 152 178 197 200 200 200 206 212 222 236 241 256 271 268 267 262 263 264 276 275 276 280 279 282 280 285 289 291 294 303 292 300 304 301 292 279 283 258 264
16 219 247 273 69 228 36 267 72 321 161 175 194 206 211 215 224 233 240 248 257 281 281 277 269 262 258 268 272 276 281 283 280 280 278 276 273 275 281 284 284 287 294 300 288 283 268 278 273
221 14 30 358 100 85 4 82 257 149 127 175 198 208 216 225 238 249 259 261 254 267 283 271 264 261 260 273 282 279 278 281 283 281 281 277 274 272 275 276 274 274 281 287 278 273 278 262 260
330 41 46 56 75 49 334 125 295 226 189 172 196 209 214 219 209 202 190 218 268 275 277 273 270 278 285 287 284 285 288 290 292 292 293 291 288 283 278 275 277 273 271 273 273 271 266 262 256
48 45 345 1 11 224 333 77 242 285 228 217 197 195 194 184 206 245 293 295 301 288 289 292 301 301 296 295 299 301 302 302 302 302 300 298 295 291 285 276 274 271 267 261 260 260 259 255 254
45 127 148 270 288 278 316 300 272 232 69 147 174 175 170 198 275 298 340 347 336 322 316 312 302 300 309 309 308 308 306 306 303 301 298 295 291 289 289 289 279 272 264 256 254 257 257 251 252
151 73 166 105 7 25 278 294 328 152 122 132 147 162 152 64 80 346 331 335 332 324 316 312 310 310 308 309 310 309 310 308 306 304 303 300 292 287 285 283 277 270 260 252 251 248 247 247 247
142 148 47 14 249 307 304 292 238 232 233 155 167 150 59 323 300 336 335 330 323 312 308 307 306 310 312 312 311 311 312 312 311 308 310 310 301 298 295 285 269 263 258 252 252 250 254 261 264
31 1 54 111 122 174 279 267 214 258 254 192 184 218 295 276 301 325 327 320 311 304 305 309 314 313 314 314 316 317 317 317 316 313 314 314 305 301 299 296 287 271 261 254 247 250 260 262 264
150 139 118 113 246 114 153 273 280 282 158 159 180 262 283 291 319 320 317 317 313 308 312 315 316 317 317 321 323 321 320 316 315 318 316 309 302 299 294 295 286 282 270 260 254 251 257 254 253